KPF71K EKAH-EDDM

Flight info

Callsign KPF71K
Flight time 1h 28m
Altitude 39000
Route LUTUS P615 ALS M852 POVEL Z94 GALMA M736 TABAT/N0467F310 M736 RDG T105 LANDU LANDU2A
Aircraft CL60/M-SBDE1E2E3FGHIJ1J4J5J7M3RWXYZ/LB1V1D1

Departure

Time 2026-05-09 16:01
Airport Aarhus Airport (EKAH)

Arrival

Time 2026-05-09 17:29
Airport Munich Airport (EDDM)
Time Latitude Longitude Altitude Speed Heading
2026-05-09 15:43 56.30747 10.62291 78 ft 0 kts 244°
2026-05-09 15:58 56.30725 10.62284 78 ft 10 kts 136°
2026-05-09 15:58 56.30682 10.62407 78 ft 9 kts 123°
2026-05-09 15:59 56.30664 10.62546 77 ft 13 kts 100°
2026-05-09 15:59 56.30650 10.62702 77 ft 13 kts 101°
2026-05-09 15:59 56.30634 10.62857 77 ft 13 kts 101°
2026-05-09 15:59 56.30614 10.62985 77 ft 8 kts 135°
2026-05-09 16:00 56.30549 10.62995 77 ft 10 kts 191°
2026-05-09 16:00 56.30500 10.62978 77 ft 11 kts 191°
2026-05-09 16:00 56.30383 10.62941 77 ft 14 kts 190°
2026-05-09 16:00 56.30291 10.62910 78 ft 12 kts 191°
2026-05-09 16:01 56.30242 10.62822 78 ft 12 kts 278°
2026-05-09 16:01 56.30292 10.62297 79 ft 87 kts 280°
2026-05-09 16:01 56.30458 10.60687 150 ft 166 kts 279°
2026-05-09 16:01 56.30669 10.58516 929 ft 186 kts 277°
2026-05-09 16:02 56.30876 10.56385 1638 ft 159 kts 279°
2026-05-09 16:02 56.30007 10.52035 2540 ft 224 kts 232°
2026-05-09 16:02 56.29080 10.49729 3611 ft 236 kts 232°
2026-05-09 16:03 56.28097 10.47263 4723 ft 256 kts 233°
2026-05-09 16:03 56.27093 10.44630 6048 ft 264 kts 234°
2026-05-09 16:03 56.26069 10.41900 7412 ft 270 kts 234°
2026-05-09 16:03 56.25034 10.39141 8824 ft 273 kts 234°
2026-05-09 16:04 56.23985 10.36346 10162 ft 277 kts 235°
2026-05-09 16:04 56.22889 10.33428 11002 ft 298 kts 234°
2026-05-09 16:04 56.21665 10.30172 11528 ft 326 kts 234°
2026-05-09 16:04 56.20369 10.26722 12410 ft 340 kts 235°
2026-05-09 16:05 56.19039 10.23181 13523 ft 347 kts 236°
2026-05-09 16:05 56.17680 10.19568 14679 ft 351 kts 236°
2026-05-09 16:05 56.16328 10.15978 15786 ft 355 kts 236°
2026-05-09 16:05 56.14932 10.12277 16859 ft 359 kts 236°
2026-05-09 16:06 56.13537 10.08582 17892 ft 361 kts 236°
2026-05-09 16:06 56.12079 10.04919 18812 ft 366 kts 231°
2026-05-09 16:06 56.10191 10.01897 19642 ft 375 kts 215°
2026-05-09 16:06 56.07783 9.99940 20435 ft 386 kts 198°
2026-05-09 16:07 56.05108 9.99401 21182 ft 397 kts 184°
2026-05-09 16:07 56.02330 9.99416 21886 ft 403 kts 183°
2026-05-09 16:07 55.99497 9.99427 22632 ft 407 kts 183°
2026-05-09 16:07 55.96679 9.99433 23336 ft 411 kts 183°
2026-05-09 16:08 55.93791 9.99437 24005 ft 416 kts 184°
2026-05-09 16:08 55.90887 9.99441 24654 ft 420 kts 184°
2026-05-09 16:08 55.87981 9.99443 25294 ft 424 kts 184°
2026-05-09 16:08 55.84997 9.99445 25893 ft 429 kts 184°
2026-05-09 16:09 55.82011 9.99446 26458 ft 433 kts 184°
2026-05-09 16:09 55.78976 9.99447 27022 ft 437 kts 184°
2026-05-09 16:09 55.75948 9.99448 27508 ft 442 kts 184°
2026-05-09 16:09 55.72876 9.99448 27992 ft 445 kts 183°
2026-05-09 16:10 55.69748 9.99448 28455 ft 449 kts 184°
2026-05-09 16:10 55.66596 9.99448 28930 ft 452 kts 183°
2026-05-09 16:10 55.63460 9.99448 29359 ft 455 kts 183°
2026-05-09 16:10 55.60311 9.99448 29773 ft 458 kts 183°
2026-05-09 16:11 55.57094 9.99447 30295 ft 458 kts 184°
2026-05-09 16:11 55.53920 9.99446 30865 ft 456 kts 184°
2026-05-09 16:11 55.50764 9.99445 31433 ft 454 kts 183°
2026-05-09 16:11 55.47604 9.99443 31995 ft 452 kts 184°
2026-05-09 16:12 55.44458 9.99441 32512 ft 450 kts 184°
2026-05-09 16:12 55.41315 9.99439 32995 ft 449 kts 184°
2026-05-09 16:12 55.38208 9.99436 33435 ft 449 kts 184°
2026-05-09 16:12 55.35093 9.99433 33843 ft 449 kts 184°
2026-05-09 16:13 55.31922 9.99430 34244 ft 449 kts 184°
2026-05-09 16:13 55.28814 9.99427 34615 ft 449 kts 184°
2026-05-09 16:13 55.25690 9.99423 34963 ft 448 kts 183°
2026-05-09 16:13 55.22565 9.99421 35319 ft 447 kts 183°
2026-05-09 16:14 55.19466 9.99418 35653 ft 446 kts 183°
2026-05-09 16:14 55.16375 9.99414 35988 ft 445 kts 183°
2026-05-09 16:14 55.13252 9.99412 36327 ft 444 kts 183°
2026-05-09 16:14 55.10193 9.99409 36679 ft 442 kts 183°
2026-05-09 16:15 55.07119 9.99405 37074 ft 441 kts 183°
2026-05-09 16:15 55.04040 9.99402 37436 ft 440 kts 183°
2026-05-09 16:15 55.00985 9.99398 37756 ft 441 kts 183°
2026-05-09 16:15 54.97888 9.99395 38018 ft 441 kts 183°
2026-05-09 16:16 54.94815 9.99391 38244 ft 441 kts 182°
2026-05-09 16:16 54.91776 9.99367 38489 ft 440 kts 184°
2026-05-09 16:16 54.88720 9.98818 38747 ft 436 kts 193°
2026-05-09 16:16 54.85738 9.97842 38977 ft 436 kts 193°
2026-05-09 16:17 54.82753 9.96856 39157 ft 437 kts 193°
2026-05-09 16:17 54.79735 9.95863 39143 ft 441 kts 193°
2026-05-09 16:17 54.73625 9.93857 39151 ft 447 kts 193°
2026-05-09 16:18 54.67471 9.91846 39148 ft 449 kts 193°
2026-05-09 16:18 54.61312 9.89856 39144 ft 448 kts 193°
2026-05-09 16:19 54.55206 9.87925 39142 ft 448 kts 191°
2026-05-09 16:19 54.48911 9.87571 39145 ft 452 kts 176°
2026-05-09 16:20 54.42697 9.89726 39139 ft 455 kts 168°
2026-05-09 16:20 54.36585 9.92783 39135 ft 457 kts 165°
2026-05-09 16:21 54.30588 9.96013 39134 ft 457 kts 165°
2026-05-09 16:21 54.24515 9.99265 39131 ft 458 kts 165°
2026-05-09 16:22 54.18357 10.02546 39126 ft 459 kts 165°
2026-05-09 16:22 54.12266 10.05778 39117 ft 460 kts 165°
2026-05-09 16:23 54.06123 10.09024 39125 ft 460 kts 165°
2026-05-09 16:23 53.99990 10.12253 39114 ft 460 kts 165°
2026-05-09 16:24 53.93839 10.15480 39122 ft 459 kts 165°
2026-05-09 16:24 53.87719 10.18678 39124 ft 459 kts 165°
2026-05-09 16:25 53.81553 10.21890 39123 ft 460 kts 165°
2026-05-09 16:25 53.75412 10.25079 39122 ft 461 kts 165°
2026-05-09 16:26 53.69246 10.28270 39124 ft 461 kts 165°
2026-05-09 16:26 53.63113 10.31435 39121 ft 461 kts 165°
2026-05-09 16:27 53.56952 10.34603 39122 ft 461 kts 165°
2026-05-09 16:27 53.50782 10.37767 39122 ft 461 kts 165°
2026-05-09 16:28 53.44604 10.40924 39116 ft 461 kts 165°
2026-05-09 16:28 53.38417 10.44077 39120 ft 461 kts 164°
2026-05-09 16:29 53.32226 10.47222 39118 ft 462 kts 165°
2026-05-09 16:29 53.26069 10.50340 39121 ft 462 kts 165°
2026-05-09 16:30 53.19900 10.53454 39125 ft 462 kts 164°
2026-05-09 16:30 53.13718 10.56566 39117 ft 462 kts 164°
2026-05-09 16:31 53.07531 10.59671 39122 ft 462 kts 164°
2026-05-09 16:31 53.01377 10.62750 39119 ft 462 kts 164°
2026-05-09 16:32 52.95220 10.65821 39125 ft 463 kts 165°
2026-05-09 16:32 52.88971 10.68929 39123 ft 463 kts 165°
2026-05-09 16:33 52.82770 10.72005 39122 ft 464 kts 165°
2026-05-09 16:33 52.76574 10.75068 39120 ft 463 kts 165°
2026-05-09 16:34 52.70377 10.78122 39117 ft 464 kts 165°
2026-05-09 16:34 52.64161 10.81177 39117 ft 464 kts 165°
2026-05-09 16:35 52.57932 10.84229 39119 ft 464 kts 165°
2026-05-09 16:35 52.51714 10.87267 39122 ft 465 kts 165°
2026-05-09 16:36 52.39266 10.93321 39123 ft 465 kts 165°
2026-05-09 16:37 52.33055 10.96328 39108 ft 466 kts 165°
2026-05-09 16:37 52.26810 10.99344 39114 ft 465 kts 165°
2026-05-09 16:38 52.20563 11.02351 39116 ft 465 kts 165°
2026-05-09 16:38 52.14386 11.05316 39101 ft 466 kts 165°
2026-05-09 16:39 52.08127 11.08312 39105 ft 466 kts 165°
2026-05-09 16:39 52.01918 11.11275 39110 ft 466 kts 165°
2026-05-09 16:40 51.95647 11.14259 39117 ft 468 kts 165°
2026-05-09 16:42 51.70570 11.26106 39113 ft 468 kts 165°
2026-05-09 16:42 51.64311 11.29040 39114 ft 469 kts 165°
2026-05-09 16:43 51.58009 11.31988 39095 ft 469 kts 165°
2026-05-09 16:43 51.51678 11.34939 39101 ft 470 kts 165°
2026-05-09 16:44 51.45406 11.37855 39107 ft 470 kts 165°
2026-05-09 16:44 51.39073 11.40791 39095 ft 470 kts 165°
2026-05-09 16:45 51.32756 11.43710 39086 ft 471 kts 165°
2026-05-09 16:45 51.26439 11.46622 39097 ft 471 kts 165°
2026-05-09 16:46 51.20119 11.49527 39094 ft 471 kts 165°
2026-05-09 16:46 51.13792 11.52426 39102 ft 471 kts 165°
2026-05-09 16:47 51.07461 11.55319 39096 ft 471 kts 165°
2026-05-09 16:47 51.01170 11.58186 39075 ft 472 kts 165°
2026-05-09 16:48 50.94814 11.61074 39085 ft 472 kts 165°
2026-05-09 16:48 50.88509 11.63930 39098 ft 473 kts 165°
2026-05-09 16:49 50.82102 11.66825 39077 ft 477 kts 166°
2026-05-09 16:50 50.72406 11.71189 39078 ft 487 kts 166°
2026-05-09 16:50 50.65842 11.74134 39081 ft 482 kts 166°
2026-05-09 16:50 50.62669 11.75557 39085 ft 471 kts 166°
2026-05-09 16:51 50.59520 11.76966 39058 ft 464 kts 166°
2026-05-09 16:51 50.53352 11.79717 39078 ft 458 kts 166°
2026-05-09 16:52 50.47234 11.82451 39076 ft 456 kts 165°
2026-05-09 16:52 50.41268 11.86234 38756 ft 465 kts 158°
2026-05-09 16:52 50.38281 11.88269 38535 ft 463 kts 158°
2026-05-09 16:53 50.35339 11.90269 38287 ft 462 kts 158°
2026-05-09 16:53 50.32380 11.92275 38040 ft 461 kts 158°
2026-05-09 16:53 50.29411 11.94284 37807 ft 462 kts 158°
2026-05-09 16:53 50.26488 11.96259 37556 ft 462 kts 158°
2026-05-09 16:54 50.23503 11.98273 37305 ft 462 kts 157°
2026-05-09 16:54 50.20564 12.00255 37043 ft 462 kts 157°
2026-05-09 16:54 50.17596 12.02252 36686 ft 464 kts 157°
2026-05-09 16:54 50.14599 12.04267 36235 ft 465 kts 156°
2026-05-09 16:55 50.11661 12.06238 35745 ft 465 kts 156°
2026-05-09 16:55 50.08684 12.08233 35241 ft 464 kts 156°
2026-05-09 16:55 50.05715 12.10218 34723 ft 465 kts 155°
2026-05-09 16:55 50.02699 12.12230 34012 ft 465 kts 155°
2026-05-09 16:56 49.99756 12.14190 33404 ft 465 kts 155°
2026-05-09 16:56 49.96738 12.16198 32773 ft 464 kts 156°
2026-05-09 16:56 49.93792 12.18155 32156 ft 461 kts 156°
2026-05-09 16:56 49.90867 12.20094 31533 ft 457 kts 156°
2026-05-09 16:57 49.87946 12.22029 30912 ft 453 kts 156°
2026-05-09 16:57 49.85055 12.23941 30288 ft 449 kts 156°
2026-05-09 16:57 49.82182 12.25840 29661 ft 445 kts 156°
2026-05-09 16:57 49.79345 12.27712 29039 ft 442 kts 156°
2026-05-09 16:58 49.76527 12.29569 28423 ft 438 kts 156°
2026-05-09 16:58 49.73737 12.31408 28101 ft 426 kts 156°
2026-05-09 16:58 49.71159 12.33617 28071 ft 423 kts 143°
2026-05-09 16:59 49.66400 12.39186 27925 ft 433 kts 141°
2026-05-09 16:59 49.64007 12.41988 27677 ft 431 kts 141°
2026-05-09 16:59 49.61633 12.44762 27429 ft 427 kts 141°
2026-05-09 16:59 49.59279 12.47508 27183 ft 425 kts 141°
2026-05-09 17:00 49.56907 12.50272 26933 ft 423 kts 141°
2026-05-09 17:00 49.54565 12.52995 26686 ft 422 kts 141°
2026-05-09 17:00 49.52213 12.55728 26437 ft 420 kts 141°
2026-05-09 17:00 49.49885 12.58429 26189 ft 419 kts 141°
2026-05-09 17:01 49.47544 12.61141 25935 ft 417 kts 141°
2026-05-09 17:01 49.45233 12.63814 25691 ft 415 kts 141°
2026-05-09 17:01 49.42984 12.66576 25449 ft 413 kts 137°
2026-05-09 17:01 49.40799 12.69504 25195 ft 412 kts 143°
2026-05-09 17:02 49.38270 12.71630 24954 ft 410 kts 159°
2026-05-09 17:02 49.35507 12.72627 24706 ft 401 kts 176°
2026-05-09 17:02 49.32783 12.72482 24464 ft 387 kts 192°
2026-05-09 17:02 49.30237 12.71350 24214 ft 373 kts 205°
2026-05-09 17:03 49.27889 12.69712 23952 ft 368 kts 208°
2026-05-09 17:04 49.11741 12.58198 22212 ft 359 kts 207°
2026-05-09 17:05 49.09493 12.56594 21961 ft 357 kts 208°
2026-05-09 17:05 49.07230 12.54980 21712 ft 356 kts 208°
2026-05-09 17:05 49.04987 12.53383 21459 ft 354 kts 208°
2026-05-09 17:05 49.02778 12.51806 21215 ft 353 kts 208°
2026-05-09 17:06 49.00536 12.50202 20959 ft 351 kts 208°
2026-05-09 17:06 48.98342 12.48635 20714 ft 349 kts 208°
2026-05-09 17:06 48.96118 12.47047 20460 ft 347 kts 208°
2026-05-09 17:06 48.93930 12.45486 20212 ft 345 kts 208°
2026-05-09 17:07 48.91752 12.43934 19961 ft 344 kts 208°
2026-05-09 17:07 48.90323 12.42916 19800 ft 342 kts 208°
2026-05-09 17:07 48.87506 12.40912 19472 ft 340 kts 208°
2026-05-09 17:07 48.85355 12.39383 19222 ft 338 kts 208°
2026-05-09 17:08 48.83237 12.37880 18976 ft 337 kts 208°
2026-05-09 17:08 48.79254 12.34370 18479 ft 322 kts 215°
2026-05-09 17:08 48.77367 12.32530 18231 ft 313 kts 215°
2026-05-09 17:09 48.75544 12.30757 17983 ft 306 kts 215°
2026-05-09 17:09 48.73845 12.29106 17747 ft 299 kts 215°
2026-05-09 17:09 48.72111 12.27423 17502 ft 292 kts 215°
2026-05-09 17:09 48.70410 12.25775 17258 ft 287 kts 215°
2026-05-09 17:10 48.68743 12.24160 17061 ft 280 kts 215°
2026-05-09 17:10 48.67100 12.22569 17044 ft 284 kts 215°
2026-05-09 17:10 48.65404 12.20928 17045 ft 284 kts 215°
2026-05-09 17:10 48.63753 12.19334 17046 ft 283 kts 215°
2026-05-09 17:11 48.62101 12.17741 16948 ft 276 kts 215°
2026-05-09 17:11 48.60465 12.16165 16562 ft 278 kts 215°
2026-05-09 17:11 48.58844 12.14604 16193 ft 278 kts 215°
2026-05-09 17:11 48.57184 12.13007 15848 ft 277 kts 215°
2026-05-09 17:12 48.55573 12.11460 15529 ft 276 kts 215°
2026-05-09 17:12 48.53940 12.09893 15214 ft 274 kts 214°
2026-05-09 17:12 48.52333 12.08352 14898 ft 273 kts 214°
2026-05-09 17:12 48.50738 12.06824 14582 ft 272 kts 214°
2026-05-09 17:13 48.49142 12.05296 14268 ft 270 kts 214°
2026-05-09 17:13 48.47666 12.03580 13942 ft 266 kts 231°
2026-05-09 17:13 48.46767 12.01214 13615 ft 260 kts 255°
2026-05-09 17:13 48.46464 11.98519 13273 ft 258 kts 265°
2026-05-09 17:14 48.46270 11.95842 12918 ft 258 kts 264°
2026-05-09 17:14 48.46067 11.93161 12611 ft 257 kts 264°
2026-05-09 17:14 48.45863 11.90469 12295 ft 255 kts 264°
2026-05-09 17:14 48.45663 11.87833 11928 ft 255 kts 264°
2026-05-09 17:15 48.45463 11.85197 11607 ft 254 kts 264°
2026-05-09 17:15 48.45261 11.82560 11284 ft 253 kts 264°
2026-05-09 17:15 48.45060 11.79927 11074 ft 247 kts 264°
2026-05-09 17:15 48.44861 11.77332 11053 ft 251 kts 264°
2026-05-09 17:16 48.44658 11.74708 11056 ft 251 kts 264°
2026-05-09 17:17 48.43253 11.56661 8826 ft 247 kts 264°
2026-05-09 17:18 48.43052 11.54116 8472 ft 247 kts 264°
2026-05-09 17:18 48.42847 11.51527 8096 ft 247 kts 264°
2026-05-09 17:18 48.42644 11.48964 7727 ft 248 kts 263°
2026-05-09 17:18 48.42439 11.46382 7418 ft 247 kts 263°
2026-05-09 17:19 48.42235 11.43825 7063 ft 247 kts 263°
2026-05-09 17:19 48.42030 11.41263 6700 ft 248 kts 263°
2026-05-09 17:19 48.41821 11.38656 6319 ft 248 kts 263°
2026-05-09 17:19 48.41427 11.36165 6036 ft 243 kts 247°
2026-05-09 17:20 48.40731 11.33829 5984 ft 245 kts 244°
2026-05-09 17:20 48.40011 11.31498 5998 ft 246 kts 244°
2026-05-09 17:20 48.39283 11.29139 5973 ft 247 kts 244°
2026-05-09 17:20 48.38562 11.26797 5975 ft 243 kts 244°
2026-05-09 17:21 48.37863 11.24552 5684 ft 241 kts 240°
2026-05-09 17:21 48.36869 11.22848 5273 ft 240 kts 209°
2026-05-09 17:21 48.35300 11.22238 5027 ft 227 kts 171°
2026-05-09 17:21 48.33873 11.23182 4991 ft 226 kts 134°
2026-05-09 17:22 48.33006 11.25132 4998 ft 225 kts 114°
2026-05-09 17:22 48.32636 11.27383 4989 ft 226 kts 91°
2026-05-09 17:22 48.32665 11.29750 4978 ft 225 kts 88°
2026-05-09 17:22 48.32771 11.32116 4981 ft 226 kts 84°
2026-05-09 17:23 48.32932 11.34469 4979 ft 226 kts 84°
2026-05-09 17:23 48.33110 11.36825 4979 ft 226 kts 83°
2026-05-09 17:23 48.33296 11.39180 4983 ft 226 kts 83°
2026-05-09 17:23 48.33483 11.41524 4980 ft 224 kts 83°
2026-05-09 17:25 48.34269 11.51315 4698 ft 175 kts 83°
2026-05-09 17:25 48.34411 11.53100 4507 ft 165 kts 83°
2026-05-09 17:25 48.34546 11.54791 4287 ft 161 kts 83°
2026-05-09 17:25 48.34679 11.56459 4075 ft 158 kts 83°
2026-05-09 17:26 48.34808 11.58093 3871 ft 157 kts 83°
2026-05-09 17:26 48.34938 11.59733 3662 ft 157 kts 82°
2026-05-09 17:26 48.35067 11.61360 3459 ft 156 kts 82°
2026-05-09 17:26 48.35195 11.62987 3257 ft 156 kts 82°
2026-05-09 17:27 48.35321 11.64583 3056 ft 151 kts 82°
2026-05-09 17:27 48.35443 11.66138 2859 ft 150 kts 83°
2026-05-09 17:27 48.35560 11.67629 2684 ft 135 kts 83°
2026-05-09 17:27 48.35666 11.68981 2506 ft 129 kts 83°
2026-05-09 17:28 48.35769 11.70300 2329 ft 124 kts 84°
2026-05-09 17:28 48.35873 11.71589 2169 ft 124 kts 83°
2026-05-09 17:28 48.35976 11.72897 2000 ft 129 kts 84°
2026-05-09 17:28 48.36076 11.74185 1851 ft 122 kts 84°
2026-05-09 17:29 48.36178 11.75488 1706 ft 125 kts 84°
2026-05-09 17:29 48.36280 11.76790 1524 ft 122 kts 84°
2026-05-09 17:29 48.36372 11.77964 1473 ft 100 kts 83°
2026-05-09 17:29 48.36406 11.78647 1471 ft 37 kts 98°
2026-05-09 17:30 48.36342 11.78957 1471 ft 29 kts 111°
2026-05-09 17:30 48.36296 11.79121 1470 ft 10 kts 113°
2026-05-09 17:30 48.36275 11.79190 1470 ft 2 kts 114°
2026-05-09 17:30 48.36271 11.79204 1470 ft 0 kts 114°
2026-05-09 17:32 48.36258 11.79249 1470 ft 9 kts 113°
2026-05-09 17:32 48.36236 11.79330 1469 ft 6 kts 113°
2026-05-09 17:32 48.36219 11.79387 1469 ft 4 kts 114°
2026-05-09 17:33 48.36214 11.79404 1469 ft 0 kts 113°
2026-05-09 17:35 48.35978 11.79499 1470 ft 0 kts 173°
2026-05-09 17:36 48.35975 11.79499 1470 ft 2 kts 173°
2026-05-09 17:36 48.35926 11.79508 1470 ft 8 kts 173°
2026-05-09 17:36 48.35878 11.79516 1471 ft 7 kts 173°
2026-05-09 17:37 48.35823 11.79540 1471 ft 9 kts 129°
2026-05-09 17:37 48.35824 11.79634 1471 ft 7 kts 84°
2026-05-09 17:37 48.35830 11.79714 1470 ft 10 kts 83°
2026-05-09 17:37 48.35837 11.79798 1470 ft 8 kts 83°
2026-05-09 17:38 48.35844 11.79894 1470 ft 9 kts 85°
2026-05-09 17:38 48.35850 11.79989 1469 ft 8 kts 83°
2026-05-09 17:38 48.35859 11.80091 1469 ft 11 kts 83°
2026-05-09 17:39 48.35877 11.80283 1468 ft 4 kts 40°
2026-05-09 17:39 48.35908 11.80280 1468 ft 6 kts 354°
2026-05-09 17:39 48.35925 11.80277 1467 ft 0 kts 354°